Location: Eaton Estates
(41.3089°N, 82.0057°W)
Time: 13:28:17
(UTC+00:00)

Cosmos 1943 Rocket - Pass Details

Date: 17 June 2021
Orbit: 813 x 843 km, 71.0° (Epoch: 30 July)

Event Time Altitude Azimuth Distance (km) Brightness Sun altitude
Rises 05:40:35 0° 341° (NNW) 3,345 6.4 -25.2°
Reaches altitude 10° 05:43:07 10° 348° (NNW) 2,410 5.5 -25.2°
Maximum altitude 05:48:24 45° 61° (ENE) 1,098 2.9 -25.1°
Enters shadow 05:50:31 31° 111° (ESE) 1,397 3.2 -25.1°
